Home > Weather > Tirana > Past weeks

Flag for Albania Past Weather in Tirana, Albania — Yesterday and Last 2 Weeks

Now
73 °F

Clear.


Feels Like: 73 °F
Forecast: 72 / 93 °F
Wind: 3 mph from South

Location: Tirana Airport

Current Time: Jul 28, 2016 at 1:06:35 AM

Latest Report: Jul 28, 2016 at 12:20 AM


Visibility: 10 mi

Pressure: 29.92 "Hg

Humidity: 83%

Dew Point: 68 °F

Location of TiranaLocation

Past Weather in Tirana — Graph

°F

Tirana Temperature Yesterday

Maximum temperature yesterday: 93 °F (at 2:50 PM)
Minimum temperature yesterday: 63 °F (at 5:20 AM)
Average temperature yesterday: 77 °F

High & Low Weather Summary for the Past Weeks

 TemperatureHumidityPressure
High95 °F (Jul 13, 12:50 PM)94% (Jul 16, 3:50 AM)30.01 "Hg (Jul 16, 3:50 AM)
Low61 °F (Jul 16, 3:50 AM)25% (Jul 20, 11:50 AM)29.68 "Hg (Jul 15, 1:50 PM)
Average77 °F63%29.90 "Hg
* Reported Jul 12 11:20 PM — Jul 27 11:50 PM, Tirana, Weather by CustomWeather, © 2016

Note: Actual official high and low records may vary slightly from our data, if they occured in-between our weather recording intervals... More about our weather records

Advertising

Tirana Weather History for the Previous 24 Hours

Scroll right to see more
 ConditionsComfort  
Time TempWeatherWind HumidityBarometerVisibility
11:50 PM
Wed, Jul 27
73 °FClear.2 mph89%29.92 "Hg10 mi
11:20 PM75 °FClear.2 mph83%29.92 "Hg10 mi
10:50 PM75 °FClear.3 mph83%29.92 "Hg10 mi
10:20 PM75 °FClear.2 mph83%29.92 "Hg10 mi
9:50 PM75 °FClear.3 mph83%29.92 "Hg10 mi
9:20 PM75 °FClear.2 mph78%29.92 "Hg10 mi
8:50 PM75 °FSunny.No wind78%29.92 "Hg10 mi
8:20 PM77 °FPassing clouds.3 mph74%29.92 "HgN/A
7:50 PM79 °FPassing clouds.7 mph61%29.89 "HgN/A
7:20 PM79 °FPassing clouds.7 mph65%29.89 "HgN/A
6:50 PM79 °FPassing clouds.9 mph61%29.89 "HgN/A
6:20 PM81 °FPassing clouds.9 mph58%29.89 "HgN/A
5:50 PM82 °FPassing clouds.12 mph55%29.89 "HgN/A
5:20 PM84 °FPassing clouds.12 mph55%29.89 "HgN/A
4:50 PM86 °FPassing clouds.12 mph55%29.89 "HgN/A
4:20 PM90 °FPassing clouds.10 mph49%29.89 "HgN/A
3:50 PM91 °FPassing clouds.12 mph46%29.89 "HgN/A
3:20 PM90 °FPassing clouds.10 mph46%29.89 "HgN/A
2:50 PM93 °FPassing clouds.9 mph36%29.89 "HgN/A
2:20 PM91 °FPassing clouds.8 mph36%29.89 "HgN/A
1:50 PM91 °FPassing clouds.9 mph34%29.89 "HgN/A
1:20 PM91 °FPassing clouds.10 mph36%29.89 "HgN/A
12:50 PM91 °FPassing clouds.7 mph44%29.92 "HgN/A
12:20 PM90 °FSunny.3 mph38%29.92 "Hg10 mi
11:50 AM88 °FSunny.2 mph35%29.92 "Hg10 mi
11:20 AM88 °FSunny.No wind35%29.92 "Hg10 mi
10:50 AM88 °FSunny.2 mph35%29.92 "Hg10 mi
10:20 AM86 °FSunny.No wind40%29.92 "Hg10 mi
9:50 AM81 °FSunny.2 mph42%29.92 "Hg10 mi
9:20 AM77 °FSunny.2 mph51%29.92 "Hg10 mi
8:50 AM77 °FPassing clouds.3 mph61%29.92 "HgN/A
8:20 AM73 °FPassing clouds.3 mph74%29.92 "HgN/A
7:50 AM70 °FSunny.5 mph83%29.92 "Hg10 mi
7:20 AM70 °FSunny.3 mph78%29.92 "Hg10 mi
6:50 AM68 °FSunny.No wind83%29.92 "Hg10 mi
6:20 AM64 °FClear.2 mph94%29.92 "Hg10 mi
5:50 AM64 °FClear.3 mph88%29.92 "Hg10 mi
5:20 AM63 °FClear.2 mph94%29.92 "Hg10 mi
4:50 AM64 °FClear.2 mph94%29.89 "Hg10 mi
4:20 AM64 °FClear.2 mph94%29.89 "Hg10 mi
3:50 AM64 °FPassing clouds.5 mph94%29.89 "HgN/A
3:20 AM64 °FClear.2 mph94%29.92 "Hg10 mi
2:50 AM66 °FClear.2 mph88%29.92 "Hg10 mi
2:20 AM66 °FClear.2 mph88%29.92 "Hg10 mi
1:50 AM66 °FClear.2 mph88%29.92 "Hg10 mi
1:20 AM66 °FClear.2 mph94%29.92 "Hg10 mi
Weather by CustomWeather, © 2016

See weather overviewHow to use our weather pages